Location: Ajisawe
(8.4333°N, 4.3833°E)
Time: 11:17:09
(UTC+00:00)

Vanguard 2 Rocket - Pass Details

Date: 28 April 2021
Orbit: 553 x 3326 km, 32.9° (Epoch: 07 May)

Event Time Altitude Azimuth Distance (km) Brightness Sun altitude
Rises 20:13:22 0° 287° (WNW) 6,957 12.5 -33.9°
Reaches altitude 10° 20:19:21 10° 278° (W) 5,588 11.6 -35.3°
Maximum altitude 20:31:56 29° 225° (SW) 3,210 9.7 -38.1°
Enters shadow 20:35:23 25° 198° (SSW) 3,089 9.4 -38.9°
Drops below altitude 10° 20:40:14 10° 168° (SSE) 3,606 - -39.9°
Sets 20:43:11 0° 156° (SSE) 4,233 - -40.6°
